Weather History for VLVT - September, 2013

Change the Weather History Date:

Sunday, September 15, 2013

  Actual Average Record
Temperature  
Mean Temperature 80 °F -  
Max Temperature 82 °F 81 °F 92 °F (2014)
Min Temperature 77 °F 74 °F 73 °F (2000)
Cooling Degree Days 14    
Growing Degree Days 30 (Base 50)    
Moisture  
Dew Point 76 °F    
Average Humidity 88    
Maximum Humidity 94    
Minimum Humidity 79    
Precipitation  
Precipitation 0.20 in 0.25 in - ()
Sea Level Pressure  
Sea Level Pressure 29.68 in    
Wind  
Wind Speed 3 mph ()    
Max Wind Speed 5 mph    
Max Gust Speed -    
Visibility 3.1 miles    
Events Rain    
Averages and records for this station are not official NWS values.
T = Trace of Precipitation, MM = Missing Value Source: Averaged Metar Reports

Daily Weather History Graph

Daily Weather History Graph

Search for Another Location

Airport or City:

Trip Planner

Search our weather history database for the weather conditions in past years. The results will help you decide how hot, cold, wet, or windy it might be!

Date:

Astronomy

Sep. 15, 2013 Rise Set
Actual Time 5:57 AM ICT 6:12 PM ICT
Civil Twilight 5:35 AM ICT 6:33 PM ICT
Nautical Twilight 5:10 AM ICT 6:59 PM ICT
Astronomical Twilight 4:44 AM ICT 7:24 PM ICT
Moon 2:47 PM ICT (9/15) 1:31 AM ICT (9/15)
Length of Visible Light 12h 58m
Length of Day
12h 14m
Waxing Gibbous, 77% of the Moon is Illuminated
Sep 15
Waxing Gibbous
Sep 19
Full
Sep 27
Last Quarter
Oct 5
New
Oct 12
First Quarter

Hourly Weather History & Observations

Time (ICT) Temp. Heat Index Dew Point Humidity Pressure Visibility Wind Dir Wind Speed Gust Speed Precip Events Conditions
6:30 AM 78.8 °F - 77.0 °F 94% 29.68 in 2.5 mi SSE 2.3 mph - N/A   Mostly Cloudy
7:00 AM 78 °F - 76 °F 93% 29.69 in 4 mi North 4.5 mph - -   Mist
7:00 AM 78.8 °F - 77.0 °F 94% 29.71 in 3.7 mi North 2.3 mph - N/A   Mostly Cloudy
7:30 AM 78.8 °F - 77.0 °F 94% 29.71 in 3.7 mi North 2.3 mph - N/A   Mostly Cloudy
8:00 AM 80.6 °F 87.1 °F 77.0 °F 89% 29.71 in 3.7 mi East 2.3 mph - N/A   Scattered Clouds
8:30 AM 80.6 °F 87.1 °F 77.0 °F 89% 29.71 in 3.7 mi East 2.3 mph - N/A   Scattered Clouds
9:00 AM 82.4 °F 89.5 °F 75.2 °F 79% 29.74 in 3.7 mi East 4.6 mph - N/A   Mostly Cloudy
9:30 AM 82.4 °F 89.5 °F 75.2 °F 79% 29.74 in 3.7 mi East 4.6 mph - N/A   Mostly Cloudy
10:00 AM 84.2 °F 94.1 °F 77.0 °F 79% 29.74 in 3.7 mi East 4.6 mph - N/A   Mostly Cloudy
10:30 AM 84.2 °F 94.1 °F 77.0 °F 79% 29.74 in 3.7 mi East 4.6 mph - N/A   Mostly Cloudy
11:00 AM 82.4 °F 90.9 °F 77.0 °F 84% 29.74 in 2.5 mi South 2.3 mph - N/A Rain Rain
11:30 AM 82.4 °F 90.9 °F 77.0 °F 84% 29.74 in 2.5 mi South 2.3 mph - N/A Rain Rain
1:00 PM 77 °F - 75 °F 91% 29.68 in 2 mi ESE 2.2 mph - - Rain Light Rain
1:00 PM 77.0 °F - 75.2 °F 94% 29.71 in 2.5 mi ESE 2.3 mph - N/A Rain Rain
1:30 PM 77.0 °F - 75.2 °F 94% 29.71 in 2.5 mi ESE 2.3 mph - N/A Rain Rain
2:00 PM 78.8 °F - 75.2 °F 89% 29.68 in 3.1 mi South 2.3 mph - N/A   Drizzle
2:30 PM 78.8 °F - 75.2 °F 89% 29.68 in 3.1 mi South 2.3 mph - N/A   Drizzle
3:00 PM 78.8 °F - 75.2 °F 89% 29.62 in 3.7 mi SW 2.3 mph - N/A   Scattered Clouds
3:30 PM 78.8 °F - 75.2 °F 89% 29.62 in 3.7 mi SW 2.3 mph - N/A   Scattered Clouds
4:00 PM 78.8 °F - 75.2 °F 89% 29.62 in 3.7 mi SW 2.3 mph - N/A   Scattered Clouds
4:30 PM 78.8 °F - 75.2 °F 89% 29.62 in 3.7 mi SW 2.3 mph - N/A   Scattered Clouds
5:00 PM 82.4 °F 90.9 °F 77.0 °F 84% 29.62 in 3.7 mi SW 2.3 mph - N/A   Scattered Clouds
5:30 PM 82.4 °F 90.9 °F 77.0 °F 84% 29.62 in 3.7 mi SW 2.3 mph - N/A   Scattered Clouds
6:00 PM 82.4 °F 90.9 °F 77.0 °F 84% 29.62 in 3.1 mi NW 2.3 mph - N/A   Scattered Clouds
6:30 PM 82.4 °F 90.9 °F 77.0 °F 84% 29.62 in 3.1 mi East 2.3 mph - N/A   Scattered Clouds
7:00 PM 80 °F - 77 °F 88% 29.65 in 2 mi East 2.2 mph - -   Mist
7:00 PM 78.8 °F - 77.0 °F 94% 29.68 in 1.9 mi East 2.3 mph - N/A   Scattered Clouds
7:30 PM 78.8 °F - 77.0 °F 94% 29.68 in 1.9 mi ESE 2.3 mph - N/A   Scattered Clouds
8:00 PM 78.8 °F - 77.0 °F 94% 29.68 in 1.9 mi ENE 2.3 mph - N/A   Scattered Clouds
8:30 PM 78.8 °F - 77.0 °F 94% 29.68 in 1.9 mi East 4.6 mph - N/A   Mostly Cloudy